{"data":{"norad_id":52674,"intl_designator":"2022-053U","name":"STARLINK-3936","alt_names":[],"object_type":"PAYLOAD","status":"ACTIVE","operator":null,"country":"US","launch_date":"2022-05-18","launch_site_code":"AFETR","launch_vehicle":null,"mission":null,"orbit_class":"UNKNOWN","rcs_meters":null,"size_class":null,"mass_kg":null,"dimensions":null,"purposes":["comms"],"wikipedia_slug":null,"has_3d_model":false,"image_url":null,"decayed_at":null,"tle_current":{"epoch":"2026-09-20T04:00:03.000096Z","epoch_age_seconds":95284,"freshness":"FRESH","line1":"1 52674U 22053U   26263.16670139  .00070566  00000+0  24269-2 0  9996","line2":"2 52674  53.1597 326.8269 0000865 102.4067 240.0645 15.29459593  5683","mean_motion":15.29459593,"eccentricity":8.65e-5,"inclination_deg":53.1597,"raan_deg":326.8269,"arg_perigee_deg":102.4067,"mean_anomaly_deg":240.0645,"bstar":0.0024269,"rev_number":568,"period_min":94.150901834253,"perigee_km":476.83367679228,"apogee_km":478.01968930945,"semimajor_km":6855.5636830509,"source":"CELESTRAK","updated_at":"2026-09-20T09:00:40.103792Z"}}}